Simultaneous Nadir Overpasses (SNOs) Predictions

Prediction of SNOs between METOP-A and NOAA-19 Satellite Orbit:

Table of predicted SNOs for the next 14.0 days since TLE Epoch: 6/29/2020
Index Date (METOP-A) Time (METOP-A) Lat,Lon (METOP-A) SZA (METOP-A ) Date (NOAA-19) Time (NOAA-19) Lat,Lon (NOAA-19) SZA (NOAA-19 ) Distance(km) Time Diff (sec)
1 07/05/2020 12:46:39 80.59, 2.09 58.08 07/05/2020 12:45:26 80.57, 2.10 58.05 1.51 73
2 07/05/2020 13:37:20 -80.59, 169.43 121.92 07/05/2020 13:36:31 -80.57, 169.35 121.95 2.08 49
3 07/05/2020 14:28:01 80.58, -23.39 58.07 07/05/2020 14:27:27 80.58, -23.55 58.06 2.82 34
4 07/05/2020 15:18:42 -80.58, 143.94 121.93 07/05/2020 15:18:31 -80.56, 144.06 121.94 2.47 11
5 07/05/2020 16:09:23 80.57, -48.88 58.06 07/05/2020 16:09:27 80.57, -48.85 58.07 0.98 4
6 07/05/2020 17:00:04 -80.57, 118.46 121.94 07/05/2020 17:00:32 -80.57, 118.41 121.94 1.07 28
7 07/05/2020 17:50:44 80.58, -74.03 58.08 07/05/2020 17:51:27 80.56, -74.15 58.07 2.68 43
